SQ7FZR-13 Weather Reports


time (UTC)temp
C
wind
direction
speed
KPH
gust
KPH
rain 1hr
cm
rain 24hr
cm
rain mn
cm
humidity
%
barometer
mb
20260507025827 14 0 0.0 0.0 0.00 0.00 0.00 77 1007.6
20260507025127 14 0 0.0 0.0 0.00 0.00 0.00 77 1007.7
20260507024427 14 0 0.0 0.0 0.00 0.00 0.00 76 1007.6
20260507023727 15 0 0.0 0.0 0.00 0.00 0.00 76 1007.6
20260507023027 15 0 0.0 0.0 0.00 0.00 0.00 75 1007.6
20260507022327 15 0 0.0 0.0 0.00 0.00 0.00 75 1007.6
20260507021627 15 0 0.0 0.0 0.00 0.00 0.00 75 1007.5
20260507020927 15 0 0.0 0.0 0.00 0.00 0.00 75 1007.6
20260507020041 15 0 0.0 0.0 0.00 0.00 0.00 75 1007.5
20260507015341 15 0 0.0 0.0 0.00 0.00 0.00 75 1007.6
20260507014641 15 0 0.0 0.0 0.00 0.00 0.00 75 1007.5
20260507013242 15 0 0.0 0.0 0.00 0.00 0.00 74 1007.4
20260507011841 15 0 0.0 0.0 0.00 0.00 0.00 73 1007.4
20260507011141 15 0 0.0 0.0 0.00 0.00 0.00 73 1007.4
20260507010441 15 0 0.0 0.0 0.00 0.00 0.00 73 1007.5
20260507005741 15 181 0.0 3.2 0.00 0.00 0.00 73 1007.6
20260507005041 15 181 0.0 3.2 0.00 0.00 0.00 73 1007.4
20260507004341 15 181 1.6 6.4 0.00 0.00 0.00 73 1007.4
20260507003641 15 199 3.2 9.7 0.00 0.00 0.00 73 1007.3
20260507002941 15 181 1.6 3.2 0.00 0.00 0.00 73 1007.4
20260507002241 15 188 1.6 3.2 0.00 0.00 0.00 73 1007.4
20260507001541 15 203 0.0 3.2 0.00 0.00 0.00 73 1007.4
20260507000842 15 0 0.0 0.0 0.00 0.00 0.00 72 1007.3
20260506235842 15 0 0.0 0.0 0.00 0.00 0.00 73 1007.4
20260506235142 15 0 0.0 0.0 0.00 0.00 0.00 72 1007.4
20260506233742 15 0 0.0 0.0 0.00 0.00 0.00 72 1007.5
20260506233042 15 0 0.0 0.0 0.00 0.00 0.00 71 1007.4
20260506232342 15 0 0.0 0.0 0.00 0.00 0.00 71 1007.4
20260506231642 15 0 0.0 0.0 0.00 0.00 0.00 70 1007.2
20260506230942 15 0 0.0 0.0 0.00 0.00 0.00 69 1007.3
20260506230242 15 0 0.0 0.0 0.00 0.00 0.00 69 1007.2
20260506225542 15 0 0.0 0.0 0.00 0.00 0.00 68 1007.0
20260506224843 16 0 0.0 0.0 0.00 0.00 0.00 67 1007.2
20260506224143 16 0 0.0 0.0 0.00 0.00 0.00 67 1007.0
20260506222742 16 0 0.0 0.0 0.00 0.00 0.00 66 1007.1
20260506222042 16 0 0.0 0.0 0.00 0.00 0.00 65 1007.2
20260506221342 16 0 0.0 0.0 0.00 0.00 0.00 64 1007.0
20260506220642 17 0 0.0 0.0 0.00 0.00 0.00 63 1007.1
20260506215942 17 0 0.0 0.0 0.00 0.00 0.00 63 1007.1
20260506215242 17 0 0.0 0.0 0.00 0.00 0.00 63 1007.1
20260506214542 17 0 0.0 0.0 0.00 0.00 0.00 63 1007.1
20260506213842 17 0 0.0 0.0 0.00 0.00 0.00 62 1007.3
20260506213142 17 0 0.0 0.0 0.00 0.00 0.00 62 1007.4
20260506212442 17 0 0.0 0.0 0.00 0.00 0.00 62 1007.6
20260506211742 17 0 0.0 0.0 0.00 0.00 0.00 61 1007.7
20260506211042 17 203 0.0 3.2 0.00 0.00 0.00 61 1007.8
20260506202842 19 194 4.8 9.7 0.00 0.00 0.00 58 1008.1
20260506202142 19 187 4.8 14.5 0.00 0.00 0.00 56 1007.9
20260506201442 19 182 8.0 14.5 0.00 0.00 0.00 55 1007.7
20260506200742 18 181 1.6 8.0 0.00 0.00 0.00 55 1007.8
20260506200042 18 0 0.0 0.0 0.00 0.00 0.00 56 1007.6
20260506195342 18 0 0.0 0.0 0.00 0.00 0.00 56 1007.5
20260506194642 18 0 0.0 0.0 0.00 0.00 0.00 56 1007.5
20260506193942 18 0 0.0 0.0 0.00 0.00 0.00 55 1007.3
20260506193242 18 0 0.0 0.0 0.00 0.00 0.00 55 1007.4
20260506192542 18 0 0.0 0.0 0.00 0.00 0.00 54 1007.3
20260506191142 18 0 0.0 0.0 0.00 0.00 0.00 53 1007.2
20260506190442 19 0 0.0 0.0 0.00 0.00 0.00 51 1007.4
20260506185742 19 0 0.0 0.0 0.00 0.00 0.00 51 1007.4
20260506185042 20 0 0.0 0.0 0.00 0.00 0.00 50 1007.3
20260506184342 20 0 0.0 0.0 0.00 0.00 0.00 49 1007.2
20260506183642 20 0 0.0 0.0 0.00 0.00 0.00 48 1007.1
20260506182942 20 0 0.0 0.0 0.00 0.00 0.00 47 1007.1
20260506182242 21 0 0.0 0.0 0.00 0.00 0.00 46 1007.0
20260506181542 21 0 0.0 0.0 0.00 0.00 0.00 45 1006.8
20260506180842 21 0 0.0 0.0 0.00 0.00 0.00 44 1006.8
20260506180142 22 0 0.0 0.0 0.00 0.00 0.00 44 1006.8
20260506175442 22 0 0.0 0.0 0.00 0.00 0.00 42 1006.6
20260506174742 23 0 0.0 0.0 0.00 0.00 0.00 42 1006.7
20260506174042 23 0 0.0 0.0 0.00 0.00 0.00 41 1006.7
20260506173341 23 0 0.0 0.0 0.00 0.00 0.00 40 1006.7
20260506172641 24 0 0.0 0.0 0.00 0.00 0.00 40 1006.8
20260506171942 24 0 0.0 0.0 0.00 0.00 0.00 39 1006.6
20260506165841 25 181 3.2 11.3 0.00 0.00 0.00 38 1006.6
20260506165142 25 181 1.6 11.3 0.00 0.00 0.00 37 1006.5
20260506164441 25 181 1.6 3.2 0.00 0.00 0.00 37 1006.5
20260506163742 25 181 0.0 3.2 0.00 0.00 0.00 36 1006.4
20260506163041 25 181 1.6 4.8 0.00 0.00 0.00 36 1006.4
20260506162341 25 182 6.4 11.3 0.00 0.00 0.00 36 1006.5
20260506161641 25 197 6.4 11.3 0.00 0.00 0.00 35 1006.5
20260506160242 26 181 1.6 9.7 0.00 0.00 0.00 35 1006.4
20260506155541 26 181 1.6 4.8 0.00 0.00 0.00 36 1006.4
20260506154841 26 181 3.2 4.8 0.00 0.00 0.00 35 1006.4
20260506153441 27 181 6.4 8.0 0.00 0.00 0.00 34 1006.5
20260506152741 27 181 3.2 8.0 0.00 0.00 0.00 33 1006.5
20260506152042 28 181 3.2 6.4 0.00 0.00 0.00 33 1006.7
20260506151341 28 181 4.8 8.0 0.00 0.00 0.00 33 1006.7
20260506150641 28 181 3.2 9.7 0.00 0.00 0.00 33 1006.7
20260506145941 28 157 4.8 9.7 0.00 0.00 0.00 31 1006.7
20260506145241 30 158 6.4 9.7 0.00 0.00 0.00 30 1006.7
20260506144541 30 1 3.2 8.0 0.00 0.00 0.00 29 1006.8
20260506143841 30 181 1.6 11.3 0.00 0.00 0.00 30 1006.8
20260506143141 30 181 3.2 11.3 0.00 0.00 0.00 31 1006.8
20260506142441 29 0 0.0 0.0 0.00 0.00 0.00 30 1006.5
20260506141041 29 162 4.8 8.0 0.00 0.00 0.00 33 1006.8
20260506134941 28 181 8.0 14.5 0.00 0.00 0.00 35 1006.7
20260506134242 27 181 3.2 14.5 0.00 0.00 0.00 35 1006.8
20260506133541 27 181 0.0 3.2 0.00 0.00 0.00 35 1006.8
20260506132841 27 45 1.6 4.8 0.00 0.00 0.00 35 1006.7
20260506132141 28 24 3.2 6.4 0.00 0.00 0.00 35 1006.7
20260506131441 27 182 6.4 12.9 0.00 0.00 0.00 35 1006.7
20260506130741 27 172 8.0 12.9 0.00 0.00 0.00 36 1006.5
20260506130041 27 73 4.8 12.9 0.00 0.00 0.00 36 1006.7
20260506125341 27 140 1.6 6.4 0.00 0.00 0.00 36 1006.7
20260506124641 27 197 6.4 12.9 0.00 0.00 0.00 36 1006.7
20260506123241 26 197 3.2 6.4 0.00 0.00 0.00 38 1006.8
20260506121841 27 189 9.7 14.5 0.00 0.00 0.00 36 1006.8
20260506121141 27 185 8.0 14.5 0.00 0.00 0.00 36 1006.9
20260506120441 27 174 6.4 19.3 0.00 0.00 0.00 36 1006.7
20260506115741 27 166 6.4 19.3 0.00 0.00 0.00 36 1006.8
20260506115041 26 203 0.0 0.0 0.00 0.00 0.00 36 1006.7
20260506114341 26 191 3.2 9.7 0.00 0.00 0.00 36 1006.7
20260506113641 27 201 8.0 9.7 0.00 0.00 0.00 36 1006.7
20260506112941 27 170 8.0 12.9 0.00 0.00 0.00 36 1006.7
20260506112241 27 177 11.3 16.1 0.00 0.00 0.00 36 1006.6
20260506111541 27 191 6.4 16.1 0.00 0.00 0.00 36 1006.6
20260506110841 26 181 4.8 11.3 0.00 0.00 0.00 36 1006.4
20260506110141 26 181 3.2 8.0 0.00 0.00 0.00 36 1006.4
20260506105441 26 181 6.4 8.0 0.00 0.00 0.00 37 1006.9
20260506104741 25 182 6.4 8.0 0.00 0.00 0.00 38 1006.5
20260506104041 25 163 8.0 14.5 0.00 0.00 0.00 38 1006.6
20260506103341 24 132 8.0 14.5 0.00 0.00 0.00 38 1006.6
20260506102642 24 172 4.8 11.3 0.00 0.00 0.00 38 1006.8
20260506101941 24 171 3.2 11.3 0.00 0.00 0.00 38 1006.6
20260506100541 23 189 9.7 12.9 0.00 0.00 0.00 38 1006.5
20260506095841 23 174 11.3 17.7 0.00 0.00 0.00 39 1006.6
20260506095141 23 181 4.8 17.7 0.00 0.00 0.00 38 1006.6
20260506093741 23 188 4.8 9.7 0.00 0.00 0.00 38 1006.7
20260506092341 23 182 8.0 14.5 0.00 0.00 0.00 38 1006.6
20260506091641 23 192 8.0 14.5 0.00 0.00 0.00 39 1006.6
20260506090940 22 201 4.8 9.7 0.00 0.00 0.00 39 1006.6
20260506085541 22 168 1.6 3.2 0.00 0.00 0.00 39 1006.6
20260506084841 22 156 0.0 8.0 0.00 0.00 0.00 40 1006.6
20260506084141 22 151 4.8 8.0 0.00 0.00 0.00 40 1006.7
20260506083441 22 136 1.6 8.0 0.00 0.00 0.00 40 1006.6
20260506082740 21 181 4.8 9.7 0.00 0.00 0.00 41 1006.5
20260506082040 21 188 8.0 12.9 0.00 0.00 0.00 41 1006.5
20260506081341 21 181 6.4 12.9 0.00 0.00 0.00 42 1006.4
20260506080640 21 181 1.6 6.4 0.00 0.00 0.00 43 1006.4
20260506073140 20 172 1.6 4.8 0.00 0.00 0.00 44 1006.8
20260506072440 20 181 1.6 4.8 0.00 0.00 0.00 44 1006.8
20260506071740 20 175 4.8 9.7 0.00 0.00 0.00 44 1006.8
20260506071040 20 165 4.8 9.7 0.00 0.00 0.00 45 1006.8
20260506070341 19 181 1.6 6.4 0.00 0.00 0.00 45 1006.8
20260506062140 17 0 0.0 0.0 0.00 0.00 0.00 48 1007.0
20260506061440 17 0 0.0 0.0 0.00 0.00 0.00 48 1006.9
20260506060740 17 0 0.0 0.0 0.00 0.00 0.00 49 1006.9
20260506051140 15 0 0.0 0.0 0.00 0.00 0.00 54 1006.9
20260506050440 14 0 0.0 0.0 0.00 0.00 0.00 55 1006.9
20260506045040 13 0 0.0 0.0 0.00 0.00 0.00 57 1007.2
20260506044340 13 0 0.0 0.0 0.00 0.00 0.00 58 1007.2
20260506042940 13 0 0.0 0.0 0.00 0.00 0.00 60 1007.3
20260506041541 12 0 0.0 0.0 0.00 0.00 0.00 61 1007.3
20260506040840 12 0 0.0 0.0 0.00 0.00 0.00 61 1007.1
20260506035544 12 0 0.0 0.0 0.00 0.00 0.00 61 1007.3
20260506034843 12 0 0.0 0.0 0.00 0.00 0.00 61 1007.2
20260506034144 12 0 0.0 0.0 0.00 0.00 0.00 61 1007.2
20260506033443 12 0 0.0 0.0 0.00 0.00 0.00 61 1007.3
20260506032043 12 0 0.0 0.0 0.00 0.00 0.00 60 1007.1
20260506031343 12 0 0.0 0.0 0.00 0.00 0.00 60 1007.2